Temperature
15 15 16 16 13 11 13 14 14 14 14 14 14 14 14 13 14 14 14 14 14 14 14 14 14 14 14 14 14 14 14 14 14 14 14 14 14 14 14 14 14 14 14 14 14 14 14 14 14
15 15 15 15 12 12 13 13 13 14 15 14 14 14 13 12 13 13 13 14 14 14 14 14 14 14 14 14 14 14 14 14 14 14 14 14 14 14 14 14 14 14 14 14 14 14 14 14 14
15 15 15 11 11 12 14 14 13 14 14 14 13 13 12 12 12 13 13 13 13 13 13 14 14 14 14 14 14 14 14 14 14 14 14 14 14 14 14 14 14 14 14 14 14 14 14 14 14
14 14 13 11 12 12 13 14 13 13 14 14 13 11 12 12 12 13 13 13 13 13 13 13 13 14 14 14 14 14 14 14 14 14 14 14 14 14 14 14 14 14 14 14 14 14 14 14 14
14 14 11 10 11 12 12 12 13 13 13 13 12 11 11 12 12 12 13 13 13 13 13 13 13 13 13 13 13 13 13 13 13 13 13 14 14 13 13 13 14 14 14 14 14 14 14 14 14
14 10 10 10 11 12 12 13 13 12 12 12 12 11 11 12 12 12 12 12 12 12 12 12 13 13 13 13 13 13 13 13 13 13 13 13 13 13 13 13 13 13 13 13 13 13 13 13 13
12 9 10 11 11 12 12 13 12 12 11 12 12 10 11 11 12 12 12 12 12 12 12 12 12 13 13 13 13 13 13 13 13 13 13 13 13 13 13 13 13 13 13 13 13 13 13 13 13
12 9 10 10 11 12 12 12 12 12 12 12 12 11 11 11 11 11 11 11 12 12 12 12 12 12 12 12 12 12 12 12 13 13 13 13 13 13 13 13 13 13 13 13 13 13 13 13 13
12 9 9 10 11 11 11 11 12 12 12 11 11 11 11 11 11 11 11 11 11 11 11 12 12 12 12 12 12 12 12 12 12 12 12 12 12 12 12 12 13 12 13 13 13 13 12 12 12
11 9 10 10 11 11 11 11 11 11 11 10 11 11 11 11 11 11 11 11 11 11 11 11 11 11 12 12 12 12 12 12 12 12 12 12 12 12 12 12 12 12 12 12 12 12 12 12 12
9 9 9 10 11 11 10 11 11 11 10 10 10 11 11 10 10 10 11 11 11 11 11 11 11 11 11 11 11 11 12 12 12 12 11 11 11 12 12 12 12 12 12 12 12 12 12 12 12
8 9 9 10 10 10 10 10 10 10 10 11 11 11 11 10 10 10 10 10 10 10 10 10 10 11 11 11 11 11 11 11 11 11 11 11 11 11 11 11 11 11 11 12 12 12 12 11 11
8 9 9 9 10 10 10 9 9 9 10 11 11 10 10 10 10 10 10 10 10 10 10 10 10 10 10 10 11 11 11 11 11 11 11 11 11 11 11 11 11 11 11 11 11 11 11 11 11
8 8 8 9 9 9 9 9 9 9 10 10 10 10 10 10 10 10 10 10 10 10 9 10 10 10 10 10 10 10 10 10 10 10 10 10 10 10 10 10 10 10 10 10 11 11 11 11 11
8 8 8 8 8 9 9 8 7 9 9 9 9 9 9 9 9 9 9 9 9 9 9 9 9 9 9 10 10 10 10 10 10 10 10 9 9 9 10 10 10 10 10 10 10 10 10 10 10
8 7 7 8 8 8 9 8 8 8 8 8 8 8 8 8 8 8 8 9 9 9 9 9 9 9 9 9 9 9 9 9 9 9 9 9 9 9 9 9 9 9 9 9 9 9 10 10 10
6 6 7 7 7 7 7 7 7 7 7 7 7 7 7 7 8 8 8 8 8 8 8 8 8 8 9 9 9 8 8 8 8 8 8 8 8 8 8 8 8 9 9 9 9 9 9 9 9
6 6 6 6 7 6 6 6 6 6 6 5 6 6 7 7 7 7 7 7 7 7 8 8 8 8 8 8 8 8 8 8 8 8 8 8 8 7 8 8 8 8 8 8 8 8 8 8 8
6 6 6 6 6 6 5 5 5 5 5 5 5 5 6 6 7 7 7 7 7 7 7 7 7 7 7 8 8 8 8 7 7 7 7 7 7 7 7 7 7 7 7 8 8 8 8 8 8
5 5 5 5 6 6 5 5 5 5 4 5 4 5 5 6 6 6 6 6 7 7 7 7 7 7 7 7 7 7 7 7 7 7 6 6 6 6 6 6 7 7 7 7 7 7 7 7 7
5 5 5 5 5 5 5 5 5 5 4 5 5 5 5 5 5 6 6 6 6 6 6 6 6 6 6 6 6 6 6 6 6 6 6 6 6 6 6 6 6 6 6 6 6 6 6 6 6
5 5 5 5 4 3 4 4 5 4 4 3 4 4 4 5 5 5 5 6 6 6 6 6 6 6 6 5 5 5 5 5 6 6 6 5 5 5 5 5 6 6 6 6 6 5 5 5 5
4 4 4 4 3 3 3 3 4 4 4 3 3 3 4 4 4 5 5 5 5 5 5 5 5 5 5 5 5 5 5 5 5 5 5 5 5 5 5 5 5 5 5 5 5 5 5 5 4
3 3 3 2 2 3 3 3 3 3 3 3 3 3 4 4 4 4 4 5 5 5 5 5 5 5 5 5 4 4 4 4 4 5 4 4 4 4 4 5 5 5 5 5 5 5 4 4 4
3 2 2 2 1 2 2 2 3 3 3 3 2 3 3 3 4 4 4 4 4 4 4 5 4 4 4 4 4 4 4 3 4 4 4 4 4 4 4 4 4 4 4 4 4 4 4 4 4
2 3 2 3 3 2 2 2 3 3 2 3 3 3 3 3 3 3 4 3 4 4 4 4 4 4 4 3 3 3 3 3 3 3 3 3 3 3 3 3 4 4 4 4 4 3 3 3 3
2 1 2 1 0 1 2 1 2 2 2 2 2 2 2 3 3 3 3 3 3 3 3 3 3 3 3 3 3 3 2 2 2 2 2 2 3 3 3 3 3 3 3 3 3 3 3 3 3
2 1 0 1 2 2 2 1 2 3 2 1 0 1 2 2 2 3 3 2 2 2 2 2 2 2 2 2 2 2 2 2 2 2 2 2 2 2 2 2 2 2 2 2 2 2 2 2 3
1 1 0 -0 0 1 2 3 2 2 2 1 0 1 2 2 2 2 2 2 2 2 2 2 2 2 1 1 1 1 1 1 1 1 1 1 1 1 1 2 2 2 2 2 2 2 2 2 2
1 0 -0 1 0 -1 -1 1 2 1 1 0 1 2 2 2 2 2 1 1 1 1 1 1 1 1 1 1 1 1 1 1 1 1 1 1 1 1 1 1 1 1 1 1 1 1 1 2 2
Wind_Speed
6 4 3 4 5 4 3 4 2 1 1 0 1 3 5 4 3 3 1 1 2 2 3 6 8 8 8 9 8 9 9 9 9 9 8 8 8 8 8 8 8 7 7 8 8 8 8 8 8
2 2 5 5 4 2 4 4 4 3 2 3 3 3 4 2 1 2 1 2 3 3 5 6 8 8 8 9 9 9 8 9 8 8 8 8 8 8 8 7 7 7 7 7 7 7 7 7 8
2 4 4 4 4 6 5 3 4 1 1 2 3 3 2 1 0 1 1 1 4 5 6 7 9 8 9 9 9 9 9 8 8 8 7 7 7 7 7 7 7 7 6 6 6 6 6 7 7
3 5 5 3 5 5 4 2 1 1 2 3 3 3 1 2 1 1 2 3 6 5 7 7 9 9 9 8 8 8 8 8 8 7 7 6 6 6 6 6 6 6 6 5 5 5 6 6 6
4 4 3 1 5 4 3 3 1 1 0 2 3 3 1 4 2 4 4 5 6 5 7 7 8 9 9 8 8 8 7 7 7 7 6 6 7 6 6 5 5 5 5 5 5 4 5 5 5
4 4 3 4 5 3 3 2 1 1 1 1 3 3 1 2 3 3 4 5 5 5 7 7 9 9 9 9 8 8 7 7 7 7 6 6 6 6 6 6 5 5 5 4 4 4 4 4 4
5 4 4 4 4 4 2 0 2 2 1 2 4 4 1 0 1 3 5 5 6 7 7 8 8 9 9 9 9 8 7 7 7 7 7 7 6 5 5 5 4 5 5 5 4 4 3 3 4
4 4 3 3 4 4 1 1 1 1 1 1 3 5 4 3 2 5 6 6 6 6 6 7 8 9 9 8 9 8 8 7 7 7 7 7 7 6 6 5 4 4 4 4 4 3 3 3 3
4 3 4 5 5 3 1 1 2 2 3 2 1 1 1 6 6 6 5 4 4 5 4 5 6 7 7 7 7 8 8 7 7 7 7 7 7 6 5 5 5 4 4 4 4 4 3 3 2
4 4 6 4 2 1 0 1 1 2 2 1 2 3 4 6 6 6 5 4 3 2 2 3 4 5 6 6 6 6 6 6 6 6 6 6 6 6 5 4 4 4 4 3 3 3 4 3 3
3 5 4 2 0 0 0 1 1 1 1 2 3 3 4 5 4 4 4 3 3 2 1 2 3 4 5 4 4 4 5 5 6 6 5 5 6 6 5 4 4 4 4 3 3 4 4 3 2
2 1 1 2 2 1 0 0 1 1 4 2 2 5 6 6 5 5 4 3 2 2 1 2 2 3 3 4 3 3 3 4 4 4 4 4 4 4 4 3 3 3 3 3 3 2 2 2 2
2 2 2 2 2 1 1 1 1 3 4 1 3 5 6 6 5 3 2 2 2 1 1 1 2 2 2 3 2 3 2 2 2 3 3 3 2 2 2 3 2 2 2 2 2 2 2 1 1
1 1 2 3 2 1 1 2 2 5 1 2 3 4 5 5 4 2 2 2 2 1 0 0 1 2 2 2 2 2 2 2 2 3 3 3 2 2 1 2 2 2 1 1 1 1 1 1 1
1 1 3 2 1 1 1 4 4 3 1 1 1 2 2 2 2 3 3 3 3 2 1 0 0 2 2 2 2 2 2 2 2 2 3 3 2 1 1 1 1 2 2 1 1 1 1 1 1
3 2 1 3 1 1 2 6 4 1 2 1 1 1 1 1 1 1 1 2 2 2 1 1 0 1 1 1 1 1 2 2 2 2 2 3 2 2 1 1 1 2 2 1 0 0 1 1 2
2 1 3 4 1 1 2 6 4 1 2 3 2 2 2 1 1 1 1 1 1 1 1 1 0 0 0 1 1 1 2 2 2 2 3 3 3 3 2 1 2 2 1 1 1 1 1 2 2
3 3 3 4 2 1 3 6 6 3 2 3 3 3 2 3 3 1 0 0 0 0 1 1 0 0 0 1 1 2 2 2 2 2 3 3 3 4 2 2 2 1 1 1 1 2 1 2 2
3 3 4 4 2 2 5 8 8 4 3 4 3 3 3 4 3 0 0 0 1 1 1 0 1 0 1 1 1 1 2 2 2 2 3 3 3 3 2 2 2 1 1 2 2 2 1 2 1
2 3 4 4 3 2 5 9 7 5 4 5 5 5 4 3 2 2 1 1 0 0 1 1 1 1 1 1 1 1 1 2 2 2 3 3 3 3 2 2 2 2 2 2 2 1 1 1 1
2 4 4 4 4 3 4 7 5 4 3 2 2 3 3 3 3 1 1 1 1 1 2 2 2 2 2 1 1 1 1 1 2 2 3 4 4 4 3 3 2 2 2 2 2 2 3 2 2
4 2 3 3 2 3 1 5 6 4 4 3 2 2 3 3 2 1 1 2 2 3 2 2 2 2 2 1 1 1 1 2 3 3 3 4 4 4 4 3 3 3 3 3 3 2 3 3 3
3 1 0 1 2 3 1 3 8 2 4 4 4 3 3 2 2 2 2 2 2 2 2 1 1 2 2 2 2 2 2 3 3 2 3 4 3 4 4 4 3 3 3 3 3 3 3 3 4
2 3 3 3 2 3 4 5 7 4 5 4 3 3 3 2 1 1 1 2 2 2 2 1 1 2 2 2 3 3 4 4 4 4 4 4 3 3 4 4 4 4 3 4 4 4 4 4 5
3 4 3 4 2 6 2 4 8 5 4 4 4 4 3 2 1 1 2 3 3 3 3 2 2 3 2 3 3 4 4 5 5 5 5 4 4 4 4 4 4 4 4 4 3 4 4 5 5
2 5 5 4 4 5 2 6 6 3 2 2 2 2 1 1 1 1 2 2 2 3 3 3 3 3 3 3 4 4 4 4 4 5 4 4 4 5 5 4 4 4 4 4 3 4 4 4 5
3 2 3 4 0 3 5 6 7 1 1 1 0 1 2 2 2 2 2 2 2 3 3 3 3 3 3 3 4 4 4 4 5 5 4 4 4 5 5 4 4 4 4 4 3 3 4 4 4
2 5 4 3 2 4 6 5 5 4 3 2 2 3 4 3 3 3 2 2 2 3 3 3 3 3 3 3 3 4 4 4 4 4 5 5 5 5 5 5 4 4 3 3 3 3 4 4 4
2 2 3 3 3 3 4 6 4 5 3 3 5 4 4 4 4 3 3 3 3 3 3 3 3 4 4 3 4 4 4 4 4 4 4 4 4 4 5 5 4 4 4 3 3 3 4 4 4
2 4 5 3 3 3 3 7 4 3 3 4 4 4 4 4 3 3 3 3 3 3 4 3 3 4 4 4 4 4 4 3 4 4 4 4 4 4 5 4 4 4 4 3 3 4 4 4 4
Wind_Direction
352 5 48 52 57 57 231 245 229 257 230 25 69 102 131 138 155 169 344 29 62 87 109 116 111 108 106 105 105 103 102 97 92 89 90 93 93 92 91 89 90 91 93 92 89 90 88 84 82
0 24 54 63 102 186 255 240 223 227 178 103 57 66 84 85 34 84 17 359 60 92 99 108 109 109 105 103 99 98 99 95 91 88 88 91 91 91 88 86 86 88 91 93 94 94 93 89 86
36 47 83 89 144 192 225 230 218 302 86 112 80 50 87 105 53 157 296 81 74 73 83 103 106 108 105 101 98 93 90 89 88 85 85 89 91 90 89 85 84 84 86 90 96 98 98 93 90
72 51 59 96 211 221 225 243 197 48 42 59 106 73 34 6 268 177 109 92 84 64 69 92 100 98 100 100 95 89 86 83 80 82 83 85 88 87 86 87 85 82 80 82 87 96 102 96 94
61 81 87 214 236 243 248 274 219 180 110 54 107 118 13 344 25 104 106 98 95 71 64 81 92 93 91 90 87 82 79 77 74 74 78 79 79 78 79 83 87 85 82 78 84 92 102 106 103
66 79 127 220 241 257 262 265 212 160 136 104 125 135 188 360 66 102 103 97 89 81 67 72 81 83 84 84 81 78 73 69 63 62 62 69 73 72 74 74 78 78 78 77 77 86 94 100 107
116 120 181 208 233 256 259 268 165 176 176 204 157 137 205 348 60 98 90 84 74 68 63 58 64 72 76 75 74 73 71 68 63 62 60 57 60 63 63 66 69 69 69 72 72 76 84 86 99
124 123 173 215 213 243 288 23 20 165 183 82 133 147 197 203 136 97 80 71 68 60 55 56 59 64 66 68 70 66 63 63 62 60 59 57 58 57 53 50 56 60 63 63 61 62 64 71 92
97 109 205 214 204 223 9 53 358 12 97 64 45 87 139 125 118 103 84 65 64 59 49 56 61 62 67 71 71 66 64 61 60 57 55 56 54 53 51 47 49 53 55 57 52 47 44 49 69
111 182 219 220 204 185 352 70 325 38 44 51 45 47 78 112 129 131 133 135 119 96 58 55 63 65 66 70 69 66 65 60 59 57 56 54 51 50 51 48 45 47 49 50 46 42 39 39 47
149 192 216 249 275 182 39 356 4 120 260 218 192 162 126 127 138 148 154 154 155 146 93 52 55 64 69 67 69 65 62 59 54 53 53 55 50 46 44 46 37 39 41 40 37 40 41 41 42
145 240 229 272 322 339 250 296 360 224 239 246 182 152 152 156 173 181 176 163 138 115 84 60 58 68 65 66 65 65 60 58 52 44 50 60 53 42 37 39 35 40 37 34 37 38 34 32 25
198 248 280 300 331 304 316 268 238 260 268 330 108 134 164 176 185 184 166 147 129 120 88 54 64 70 69 71 62 63 61 59 51 44 40 56 61 37 28 22 26 29 34 35 21 18 13 3 354
195 281 310 326 319 319 222 286 258 261 253 88 136 166 181 184 180 169 162 164 170 168 192 6 67 54 63 67 65 69 57 46 46 37 24 32 49 50 28 9 10 6 359 1 5 347 343 313 314
100 35 340 324 313 301 80 312 249 259 121 111 169 183 182 186 178 198 205 199 201 203 204 281 126 43 48 44 48 54 45 48 45 19 9 14 14 17 8 346 347 341 339 345 360 2 359 325 319
58 69 300 310 336 304 139 261 272 285 147 196 221 230 229 231 204 223 223 210 206 194 198 235 3 36 11 12 28 43 41 45 27 1 354 357 349 342 353 312 299 338 357 1 283 252 269 288 294
53 208 245 295 333 16 183 251 280 321 180 229 242 249 245 257 290 280 230 206 200 202 199 201 179 234 286 356 35 46 45 38 16 3 357 346 340 338 338 306 310 341 354 336 278 256 235 265 279
211 214 234 247 301 340 250 257 281 295 229 238 246 250 249 245 255 257 223 189 145 154 159 175 177 270 12 26 21 16 11 2 7 358 348 343 342 336 331 310 313 326 273 288 284 266 260 246 261
172 194 240 257 304 301 262 269 277 277 258 253 249 242 247 253 266 282 67 76 70 44 60 159 184 215 97 59 18 343 317 312 316 328 330 333 335 337 332 304 298 293 257 253 255 256 263 262 262
198 229 260 288 323 285 281 276 269 249 238 237 230 233 235 258 313 343 4 33 29 251 273 220 212 205 184 188 205 229 265 272 276 302 326 326 324 319 314 292 276 270 260 265 250 230 242 269 256
249 222 238 262 325 343 315 294 269 258 238 243 222 216 221 217 229 259 288 269 274 267 254 260 242 224 211 187 76 22 10 334 320 315 316 319 316 310 300 291 274 267 242 248 251 235 217 241 258
250 250 240 260 295 297 350 289 277 261 270 256 253 237 239 243 232 240 277 291 270 261 262 259 263 237 220 178 157 169 256 264 267 279 288 302 306 300 296 288 273 257 248 247 249 243 235 225 246
213 358 241 252 205 292 277 243 281 288 266 259 255 251 254 255 237 244 263 269 289 294 282 263 270 257 235 212 205 215 250 262 277 286 291 297 300 300 294 283 269 258 250 246 245 243 237 227 231
163 66 51 43 68 275 231 207 276 247 231 248 250 252 255 258 269 296 332 354 339 335 325 305 279 287 258 230 227 228 249 266 279 286 286 291 293 293 293 287 274 263 255 248 244 241 241 234 232
77 91 22 351 341 255 235 215 252 253 233 225 243 253 253 254 276 326 350 343 334 333 325 314 300 295 281 248 244 242 246 248 251 261 265 277 289 290 284 287 276 269 265 262 249 246 249 239 234
157 142 161 209 245 284 289 238 256 262 273 253 245 245 251 266 278 292 298 304 313 317 317 305 297 296 295 273 263 258 256 255 258 258 261 264 269 275 279 279 277 278 274 270 256 249 249 244 238
125 148 153 134 155 283 271 282 298 252 305 336 332 317 277 284 290 292 299 301 307 310 309 300 291 299 295 290 283 273 266 263 264 267 267 268 271 276 273 273 274 275 275 266 257 257 258 254 246
118 137 110 135 189 270 288 276 263 269 267 283 286 286 291 302 307 307 307 305 311 317 321 324 313 300 302 304 297 292 278 271 271 269 271 273 278 279 276 276 272 273 269 260 253 261 258 256 255
113 113 126 137 169 189 276 277 234 227 233 245 259 269 275 282 286 293 304 314 324 334 331 330 329 327 323 314 307 301 290 283 281 273 273 275 280 279 277 274 272 271 270 263 259 261 260 254 254
180 180 158 170 228 195 213 273 283 238 247 249 268 281 288 286 291 296 302 317 326 328 326 325 327 324 319 317 314 305 300 297 290 284 280 277 280 279 277 275 272 270 270 261 254 262 261 254 256
Height
1488 1490 1491 1493 1497 1508 1508 1502 1498 1497 1496 1495 1495 1496 1497 1500 1504 1509 1505 1504 1506 1508 1510 1511 1513 1514 1515 1516 1517 1518 1519 1519 1520 1520 1521 1521 1522 1522 1523 1523 1523 1524 1524 1524 1524 1524 1525 1525 1526
1488 1490 1493 1494 1503 1512 1507 1500 1497 1495 1494 1495 1495 1496 1497 1499 1501 1502 1502 1504 1506 1508 1510 1511 1513 1514 1515 1516 1517 1518 1519 1519 1520 1520 1521 1521 1522 1522 1523 1523 1523 1524 1524 1524 1524 1525 1525 1525 1526
1488 1490 1493 1497 1506 1508 1501 1496 1495 1494 1494 1494 1496 1497 1498 1500 1501 1502 1503 1505 1507 1509 1510 1511 1513 1514 1515 1516 1517 1518 1519 1519 1520 1520 1521 1521 1522 1522 1522 1523 1523 1523 1524 1524 1524 1524 1525 1525 1526
1489 1491 1494 1501 1502 1500 1496 1494 1494 1494 1494 1494 1495 1498 1499 1501 1501 1502 1504 1505 1507 1509 1510 1511 1513 1514 1515 1516 1517 1518 1518 1519 1520 1520 1521 1521 1522 1522 1522 1522 1523 1523 1523 1524 1524 1524 1525 1525 1526
1489 1491 1498 1503 1500 1497 1494 1493 1493 1493 1494 1495 1496 1498 1499 1501 1501 1502 1504 1505 1507 1508 1510 1511 1513 1514 1515 1516 1517 1517 1518 1519 1519 1520 1520 1521 1521 1521 1521 1522 1522 1522 1523 1523 1524 1524 1524 1525 1525
1489 1492 1503 1504 1498 1495 1494 1493 1493 1493 1494 1495 1496 1498 1499 1501 1501 1503 1504 1506 1507 1508 1510 1511 1512 1513 1515 1515 1516 1517 1518 1518 1519 1519 1520 1520 1520 1520 1521 1521 1521 1522 1522 1522 1523 1523 1524 1524 1525
1489 1495 1500 1499 1498 1495 1493 1492 1493 1493 1494 1495 1495 1497 1499 1500 1501 1503 1504 1506 1507 1508 1509 1511 1512 1513 1514 1515 1516 1516 1517 1517 1518 1518 1518 1519 1519 1519 1520 1520 1520 1521 1521 1521 1522 1522 1523 1523 1524
1488 1494 1498 1499 1497 1494 1492 1492 1493 1493 1493 1495 1496 1496 1498 1499 1500 1502 1504 1505 1507 1508 1509 1510 1511 1512 1513 1514 1515 1515 1516 1516 1516 1517 1517 1517 1518 1518 1518 1519 1519 1519 1519 1520 1520 1521 1521 1522 1522
1488 1497 1499 1496 1495 1493 1492 1492 1493 1493 1493 1494 1495 1496 1497 1498 1499 1501 1503 1505 1506 1507 1508 1509 1510 1511 1512 1513 1513 1514 1514 1515 1515 1515 1515 1516 1516 1516 1517 1517 1517 1518 1518 1518 1519 1519 1520 1520 1521
1488 1496 1494 1491 1491 1492 1492 1492 1493 1493 1493 1494 1495 1495 1496 1497 1498 1500 1501 1502 1504 1506 1507 1508 1509 1510 1511 1511 1512 1512 1513 1513 1513 1514 1514 1514 1514 1515 1515 1515 1515 1516 1516 1516 1517 1517 1518 1518 1519
1488 1491 1490 1490 1491 1491 1491 1492 1493 1493 1494 1494 1494 1495 1495 1497 1498 1499 1500 1501 1503 1505 1506 1507 1508 1509 1509 1510 1510 1511 1511 1511 1511 1512 1512 1512 1512 1513 1513 1513 1513 1514 1514 1514 1515 1515 1515 1516 1516
1489 1490 1490 1490 1490 1491 1491 1492 1493 1493 1494 1494 1494 1494 1495 1496 1497 1498 1499 1501 1502 1504 1505 1506 1507 1507 1508 1508 1509 1509 1509 1509 1509 1510 1510 1510 1510 1510 1510 1511 1511 1511 1511 1512 1512 1512 1513 1514 1514
1489 1489 1490 1490 1490 1490 1491 1491 1492 1492 1492 1493 1493 1493 1494 1495 1496 1497 1499 1500 1501 1502 1503 1504 1505 1506 1506 1507 1507 1507 1507 1507 1508 1508 1508 1508 1508 1508 1508 1508 1508 1509 1509 1509 1509 1510 1510 1511 1511
1489 1489 1489 1489 1489 1490 1490 1491 1491 1490 1491 1491 1491 1492 1493 1494 1495 1496 1497 1498 1499 1500 1502 1503 1503 1504 1504 1505 1505 1505 1505 1505 1505 1505 1505 1505 1505 1505 1505 1505 1505 1506 1506 1506 1507 1507 1507 1508 1508
1488 1490 1490 1489 1489 1489 1490 1491 1490 1489 1490 1490 1490 1491 1491 1492 1493 1494 1495 1496 1497 1499 1500 1501 1501 1502 1502 1503 1503 1503 1503 1503 1503 1503 1503 1503 1503 1503 1502 1502 1503 1503 1503 1503 1504 1504 1504 1504 1505
1489 1492 1494 1490 1489 1489 1493 1493 1489 1489 1489 1488 1489 1489 1490 1490 1491 1492 1493 1494 1496 1497 1498 1499 1499 1500 1500 1501 1501 1501 1500 1500 1500 1500 1500 1500 1499 1499 1499 1499 1499 1500 1500 1500 1500 1500 1501 1501 1501
1494 1497 1495 1493 1490 1490 1492 1491 1488 1488 1487 1487 1487 1487 1488 1488 1489 1490 1491 1492 1493 1494 1495 1496 1497 1497 1498 1498 1498 1498 1498 1497 1497 1497 1497 1497 1496 1496 1496 1496 1496 1496 1497 1497 1497 1497 1497 1497 1497
1496 1497 1496 1494 1491 1491 1492 1490 1487 1486 1486 1485 1485 1485 1486 1486 1487 1488 1489 1490 1491 1492 1493 1493 1494 1495 1495 1495 1495 1495 1495 1494 1494 1494 1494 1494 1493 1493 1493 1493 1493 1493 1493 1493 1493 1493 1494 1494 1494
1493 1495 1496 1494 1492 1492 1491 1489 1486 1484 1484 1483 1483 1483 1483 1484 1485 1486 1487 1488 1489 1489 1490 1490 1491 1491 1492 1492 1492 1491 1491 1491 1491 1491 1491 1491 1490 1490 1490 1490 1489 1489 1489 1489 1490 1489 1490 1490 1490
1492 1495 1495 1494 1492 1492 1491 1488 1484 1482 1482 1481 1481 1481 1481 1481 1482 1483 1484 1485 1486 1486 1487 1488 1488 1488 1489 1489 1489 1489 1488 1488 1488 1488 1488 1488 1487 1487 1487 1486 1486 1486 1486 1486 1486 1486 1486 1486 1487
1493 1495 1495 1495 1493 1493 1492 1486 1482 1479 1479 1479 1479 1478 1479 1479 1480 1481 1482 1483 1483 1484 1484 1485 1485 1485 1485 1486 1486 1486 1486 1485 1485 1485 1485 1484 1484 1484 1484 1483 1483 1482 1482 1482 1482 1483 1482 1483 1483
1493 1493 1493 1494 1497 1499 1497 1496 1482 1479 1478 1477 1477 1477 1477 1478 1478 1479 1480 1480 1481 1481 1482 1482 1482 1482 1482 1482 1482 1482 1481 1481 1481 1481 1481 1481 1481 1480 1480 1480 1480 1479 1479 1479 1479 1479 1480 1480 1480
1493 1493 1494 1495 1498 1501 1499 1499 1484 1479 1477 1476 1475 1475 1475 1476 1477 1477 1478 1478 1479 1479 1479 1479 1479 1479 1479 1479 1479 1479 1478 1478 1478 1478 1477 1477 1477 1477 1476 1476 1476 1475 1475 1475 1475 1475 1476 1476 1476
1492 1495 1497 1501 1502 1502 1497 1498 1487 1481 1475 1474 1473 1473 1474 1475 1475 1476 1476 1476 1476 1476 1476 1476 1476 1476 1476 1476 1475 1475 1475 1474 1474 1473 1473 1473 1472 1472 1472 1472 1472 1471 1471 1471 1471 1471 1472 1472 1472
1493 1499 1507 1506 1511 1503 1496 1495 1486 1475 1473 1472 1472 1472 1473 1473 1474 1473 1473 1473 1473 1473 1473 1473 1472 1472 1472 1472 1472 1471 1471 1470 1470 1469 1469 1468 1467 1467 1467 1467 1467 1467 1466 1466 1467 1467 1467 1467 1467
1495 1496 1505 1505 1506 1502 1497 1494 1480 1473 1471 1471 1471 1471 1472 1472 1472 1472 1472 1472 1471 1470 1470 1469 1469 1468 1468 1468 1468 1468 1467 1466 1466 1465 1464 1464 1463 1463 1463 1462 1462 1462 1462 1462 1462 1462 1462 1463 1463
1494 1498 1499 1508 1513 1510 1497 1491 1478 1471 1471 1470 1471 1471 1471 1471 1471 1470 1470 1470 1469 1468 1468 1467 1466 1465 1465 1464 1464 1463 1463 1462 1461 1461 1460 1459 1458 1458 1458 1458 1457 1457 1457 1458 1458 1457 1458 1458 1458
1494 1497 1503 1505 1505 1501 1494 1492 1482 1472 1471 1471 1471 1470 1469 1469 1469 1469 1468 1468 1467 1466 1465 1464 1463 1462 1461 1461 1460 1459 1459 1458 1457 1456 1455 1454 1454 1454 1453 1453 1453 1453 1453 1453 1453 1453 1453 1453 1453
1497 1499 1501 1505 1505 1504 1500 1487 1473 1471 1470 1470 1469 1469 1468 1468 1467 1467 1466 1466 1465 1464 1463 1462 1460 1459 1458 1457 1456 1455 1454 1454 1453 1452 1450 1449 1449 1449 1448 1448 1448 1448 1448 1448 1448 1448 1448 1449 1448
1495 1497 1500 1502 1505 1509 1509 1491 1469 1469 1468 1468 1468 1467 1467 1467 1466 1465 1464 1464 1462 1461 1460 1459 1458 1457 1455 1454 1453 1452 1451 1449 1448 1447 1446 1445 1444 1444 1444 1443 1443 1443 1443 1443 1444 1444 1444 1443 1443